| time (UTC) | temp F | wind direction | speed MPH | gust MPH | rain 1hr in | rain 24hr in | rain mn in | humidity % | barometer mb |
| 20260502194612 | 54 | 258 | 5.0 | 7.0 | 0.00 | 0.00 | 0.00 | 33 | 1016.2 |
| 20260502194108 | 53 | 298 | 4.0 | 6.0 | 0.00 | 0.00 | 0.00 | 34 | 1016.3 |
| 20260502193605 | 52 | 266 | 2.0 | 3.0 | 0.00 | 0.00 | 0.00 | 37 | 1016.4 |
| 20260502193102 | 52 | 256 | 2.0 | 7.0 | 0.00 | 0.00 | 0.00 | 36 | 1016.4 |
| 20260502192557 | 52 | 276 | 2.0 | 8.0 | 0.00 | 0.00 | 0.00 | 36 | 1016.6 |
| 20260502192055 | 52 | 250 | 2.0 | 2.0 | 0.00 | 0.00 | 0.00 | 36 | 1016.5 |
| 20260502191552 | 52 | 295 | 5.0 | 9.0 | 0.00 | 0.00 | 0.00 | 35 | 1016.5 |
| 20260502191049 | 52 | 268 | 1.0 | 6.0 | 0.00 | 0.00 | 0.00 | 40 | 1016.7 |
| 20260502190547 | 50 | 211 | 6.0 | 9.0 | 0.00 | 0.00 | 0.00 | 35 | 1016.8 |
| 20260502190038 | 51 | 307 | 6.0 | 9.0 | 0.00 | 0.00 | 0.00 | 34 | 1016.9 |
| 20260502185538 | 51 | 316 | 6.0 | 10.0 | 0.00 | 0.00 | 0.00 | 34 | 1017.0 |
| 20260502185036 | 51 | 290 | 6.0 | 10.0 | 0.00 | 0.00 | 0.00 | 35 | 1017.0 |
| 20260502184531 | 51 | 264 | 7.0 | 11.0 | 0.00 | 0.00 | 0.00 | 32 | 1017.0 |
| 20260502184028 | 51 | 242 | 3.0 | 8.0 | 0.00 | 0.00 | 0.00 | 34 | 1017.0 |
| 20260502183524 | 50 | 300 | 4.0 | 6.0 | 0.00 | 0.00 | 0.00 | 38 | 1017.1 |
| 20260502183020 | 52 | 357 | 2.0 | 7.0 | 0.00 | 0.00 | 0.00 | 37 | 1017.1 |
| 20260502182515 | 52 | 292 | 4.0 | 7.0 | 0.00 | 0.00 | 0.00 | 36 | 1017.2 |
| 20260502182011 | 51 | 294 | 5.0 | 6.0 | 0.00 | 0.00 | 0.00 | 37 | 1017.2 |
| 20260502181509 | 50 | 289 | 5.0 | 13.0 | 0.00 | 0.00 | 0.00 | 38 | 1017.2 |
| 20260502181008 | 51 | 297 | 3.0 | 6.0 | 0.00 | 0.00 | 0.00 | 37 | 1017.2 |
| 20260502180505 | 50 | 332 | 2.0 | 8.0 | 0.00 | 0.00 | 0.00 | 41 | 1017.2 |
| 20260502170424 | 51 | 282 | 3.0 | 8.0 | 0.00 | 0.00 | 0.00 | 40 | 1017.8 |
| 20260502163907 | 48 | 270 | 4.0 | 7.0 | 0.00 | 0.00 | 0.00 | 41 | 1018.0 |
| 20260502163403 | 48 | 11 | 2.0 | 4.0 | 0.00 | 0.00 | 0.00 | 38 | 1017.9 |
| 20260502162901 | 50 | 245 | 2.0 | 4.0 | 0.00 | 0.00 | 0.00 | 40 | 1018.0 |
| 20260502162357 | 49 | 278 | 2.0 | 4.0 | 0.00 | 0.00 | 0.00 | 43 | 1018.1 |
| 20260502161854 | 50 | 265 | 2.0 | 7.0 | 0.00 | 0.00 | 0.00 | 40 | 1018.0 |
| 20260502161350 | 49 | 293 | 2.0 | 4.0 | 0.00 | 0.00 | 0.00 | 43 | 1018.3 |
| 20260502160849 | 48 | 308 | 2.0 | 7.0 | 0.00 | 0.00 | 0.00 | 45 | 1018.3 |
| 20260502160347 | 49 | 213 | 4.0 | 4.0 | 0.00 | 0.00 | 0.00 | 44 | 1018.3 |
| 20260502152322 | 49 | 307 | 0.0 | 3.0 | 0.00 | 0.00 | 0.00 | 42 | 1018.5 |
| 20260502151819 | 48 | 303 | 2.0 | 6.0 | 0.00 | 0.00 | 0.00 | 43 | 1018.5 |
| 20260502151316 | 48 | 257 | 1.0 | 4.0 | 0.00 | 0.00 | 0.00 | 42 | 1018.6 |
| 20260502150814 | 48 | 251 | 1.0 | 3.0 | 0.00 | 0.00 | 0.00 | 43 | 1018.6 |
| 20260502150310 | 49 | 241 | 4.0 | 7.0 | 0.00 | 0.00 | 0.00 | 43 | 1018.8 |
| 20260502130658 | 42 | 254 | 1.0 | 3.0 | 0.00 | 0.00 | 0.00 | 49 | 1019.3 |
| 20260502130156 | 42 | 248 | 0.0 | 0.0 | 0.00 | 0.00 | 0.00 | 51 | 1019.3 |
| 20260502123642 | 41 | 249 | 0.0 | 0.0 | 0.00 | 0.00 | 0.00 | 49 | 1019.6 |
| 20260502123138 | 41 | 255 | 0.0 | 2.0 | 0.00 | 0.00 | 0.00 | 49 | 1019.4 |
| 20260502122635 | 42 | 231 | 0.0 | 0.0 | 0.00 | 0.00 | 0.00 | 49 | 1019.5 |
| 20260502122131 | 41 | 235 | 0.0 | 0.0 | 0.00 | 0.00 | 0.00 | 50 | 1019.6 |
| 20260502121630 | 41 | 286 | 0.0 | 1.0 | 0.00 | 0.00 | 0.00 | 51 | 1019.4 |
| 20260502121127 | 40 | 232 | 0.0 | 0.0 | 0.00 | 0.00 | 0.00 | 51 | 1019.5 |
| 20260502120623 | 40 | 201 | 0.0 | 0.0 | 0.00 | 0.00 | 0.00 | 52 | 1019.6 |
| 20260502120120 | 39 | 200 | 0.0 | 0.0 | 0.00 | 0.00 | 0.00 | 57 | 1019.6 |
| 20260502115618 | 37 | 201 | 0.0 | 0.0 | 0.00 | 0.00 | 0.00 | 58 | 1019.6 |
| 20260502115114 | 35 | 200 | 0.0 | 0.0 | 0.00 | 0.00 | 0.00 | 62 | 1019.7 |
| 20260502114610 | 35 | 207 | 0.0 | 0.0 | 0.00 | 0.00 | 0.00 | 63 | 1019.5 |
| 20260502114107 | 34 | 216 | 0.0 | 0.0 | 0.00 | 0.00 | 0.00 | 65 | 1019.7 |
| 20260502113605 | 33 | 223 | 0.0 | 0.0 | 0.00 | 0.00 | 0.00 | 65 | 1019.6 |
| 20260502113103 | 33 | 227 | 0.0 | 0.0 | 0.00 | 0.00 | 0.00 | 65 | 1019.7 |
| 20260502112600 | 32 | 232 | 0.0 | 0.0 | 0.00 | 0.00 | 0.00 | 68 | 1019.6 |
| 20260502112058 | 33 | 233 | 0.0 | 0.0 | 0.00 | 0.00 | 0.00 | 66 | 1019.5 |
| 20260502111555 | 33 | 229 | 0.0 | 0.0 | 0.00 | 0.00 | 0.00 | 64 | 1019.5 |
| 20260502111052 | 32 | 200 | 0.0 | 0.0 | 0.00 | 0.00 | 0.00 | 65 | 1019.5 |
| 20260502110550 | 32 | 267 | 0.0 | 0.0 | 0.00 | 0.00 | 0.00 | 66 | 1019.5 |
| 20260502110047 | 32 | 53 | 1.0 | 1.0 | 0.00 | 0.00 | 0.00 | 66 | 1019.6 |
| 20260502105544 | 31 | 337 | 0.0 | 0.0 | 0.00 | 0.00 | 0.00 | 68 | 1019.4 |
| 20260502105042 | 31 | 179 | 0.0 | 0.0 | 0.00 | 0.00 | 0.00 | 67 | 1019.4 |
| 20260502104539 | 32 | 251 | 0.0 | 0.0 | 0.00 | 0.00 | 0.00 | 69 | 1019.6 |
| 20260502104036 | 32 | 319 | 0.0 | 0.0 | 0.00 | 0.00 | 0.00 | 64 | 1019.6 |
| 20260502103534 | 32 | 213 | 0.0 | 0.0 | 0.00 | 0.00 | 0.00 | 66 | 1019.6 |
| 20260502103032 | 32 | 214 | 0.0 | 0.0 | 0.00 | 0.00 | 0.00 | 67 | 1019.5 |
| 20260502102528 | 33 | 335 | 0.0 | 0.0 | 0.00 | 0.00 | 0.00 | 66 | 1019.5 |
| 20260502102025 | 32 | 293 | 0.0 | 0.0 | 0.00 | 0.00 | 0.00 | 63 | 1019.5 |
| 20260502101523 | 32 | 297 | 0.0 | 0.0 | 0.00 | 0.00 | 0.00 | 64 | 1019.5 |
| 20260502101021 | 32 | 334 | 1.0 | 1.0 | 0.00 | 0.00 | 0.00 | 66 | 1019.5 |
| 20260502100520 | 31 | 213 | 0.0 | 2.0 | 0.00 | 0.00 | 0.00 | 69 | 1019.5 |
| 20260502091454 | 32 | 310 | 0.0 | 0.0 | 0.00 | 0.00 | 0.00 | 63 | 1019.5 |
| 20260502090951 | 32 | 273 | 0.0 | 0.0 | 0.00 | 0.00 | 0.00 | 65 | 1019.5 |
| 20260502090448 | 32 | 287 | 0.0 | 1.0 | 0.00 | 0.00 | 0.00 | 66 | 1019.4 |
| 20260502071342 | 32 | 302 | 0.0 | 0.0 | 0.00 | 0.00 | 0.00 | 64 | 1019.8 |
| 20260502070841 | 31 | 283 | 0.0 | 0.0 | 0.00 | 0.00 | 0.00 | 64 | 1019.8 |
| 20260502070338 | 31 | 283 | 0.0 | 0.0 | 0.00 | 0.00 | 0.00 | 66 | 1019.9 |
| 20260502065837 | 31 | 283 | 0.0 | 0.0 | 0.00 | 0.00 | 0.00 | 67 | 1020.3 |
| 20260502065334 | 31 | 301 | 0.0 | 0.0 | 0.00 | 0.00 | 0.00 | 66 | 1020.0 |
| 20260502064832 | 31 | 300 | 0.0 | 0.0 | 0.00 | 0.00 | 0.00 | 66 | 1020.0 |
| 20260502064330 | 30 | 324 | 0.0 | 0.0 | 0.00 | 0.00 | 0.00 | 69 | 1020.2 |
| 20260502063827 | 30 | 302 | 0.0 | 0.0 | 0.00 | 0.00 | 0.00 | 72 | 1020.3 |
| 20260502063325 | 30 | 334 | 0.0 | 0.0 | 0.00 | 0.00 | 0.00 | 71 | 1020.1 |
| 20260502062822 | 30 | 303 | 0.0 | 0.0 | 0.00 | 0.00 | 0.00 | 71 | 1020.3 |
| 20260502062319 | 30 | 321 | 0.0 | 0.0 | 0.00 | 0.00 | 0.00 | 70 | 1020.4 |
| 20260502061818 | 30 | 300 | 0.0 | 0.0 | 0.00 | 0.00 | 0.00 | 72 | 1020.4 |
| 20260502061315 | 30 | 326 | 0.0 | 0.0 | 0.00 | 0.00 | 0.00 | 71 | 1020.3 |
| 20260502060811 | 30 | 304 | 0.0 | 0.0 | 0.00 | 0.00 | 0.00 | 72 | 1020.4 |
| 20260502060306 | 30 | 300 | 0.0 | 0.0 | 0.00 | 0.00 | 0.00 | 71 | 1020.3 |
| 20260502055804 | 30 | 319 | 0.0 | 0.0 | 0.00 | 0.00 | 0.00 | 69 | 1020.4 |
| 20260502055305 | 30 | 303 | 0.0 | 0.0 | 0.00 | 0.00 | 0.00 | 71 | 1020.4 |
| 20260502054801 | 30 | 303 | 0.0 | 0.0 | 0.00 | 0.00 | 0.00 | 72 | 1020.5 |
| 20260502054258 | 30 | 337 | 0.0 | 0.0 | 0.00 | 0.00 | 0.00 | 72 | 1020.4 |
| 20260502053756 | 30 | 297 | 0.0 | 1.0 | 0.00 | 0.00 | 0.00 | 70 | 1020.6 |
| 20260502053253 | 30 | 298 | 0.0 | 0.0 | 0.00 | 0.00 | 0.00 | 71 | 1020.5 |
| 20260502052750 | 30 | 305 | 0.0 | 0.0 | 0.00 | 0.00 | 0.00 | 72 | 1020.5 |
| 20260502052249 | 30 | 324 | 0.0 | 0.0 | 0.00 | 0.00 | 0.00 | 72 | 1020.6 |
| 20260502051746 | 30 | 296 | 0.0 | 0.0 | 0.00 | 0.00 | 0.00 | 71 | 1020.7 |
| 20260502051244 | 30 | 338 | 0.0 | 0.0 | 0.00 | 0.00 | 0.00 | 73 | 1020.8 |
| 20260502050740 | 30 | 299 | 0.0 | 0.0 | 0.00 | 0.00 | 0.00 | 72 | 1020.8 |
| 20260502050236 | 30 | 319 | 0.0 | 0.0 | 0.00 | 0.00 | 0.00 | 71 | 1020.7 |
| 20260502045734 | 30 | 340 | 0.0 | 2.0 | 0.00 | 0.00 | 0.00 | 72 | 1020.8 |
| 20260502045231 | 30 | 303 | 0.0 | 0.0 | 0.00 | 0.00 | 0.00 | 71 | 1021.0 |
| 20260502044728 | 30 | 297 | 0.0 | 0.0 | 0.00 | 0.00 | 0.00 | 71 | 1020.8 |
| 20260502044223 | 30 | 300 | 0.0 | 0.0 | 0.00 | 0.00 | 0.00 | 70 | 1020.8 |
| 20260502043721 | 30 | 300 | 0.0 | 0.0 | 0.00 | 0.00 | 0.00 | 70 | 1020.9 |
| 20260502043219 | 30 | 297 | 0.0 | 0.0 | 0.00 | 0.00 | 0.00 | 73 | 1020.9 |
| 20260502042718 | 30 | 301 | 0.0 | 0.0 | 0.00 | 0.00 | 0.00 | 73 | 1020.9 |
| 20260502042215 | 30 | 297 | 0.0 | 0.0 | 0.00 | 0.00 | 0.00 | 73 | 1021.0 |
| 20260502041713 | 30 | 297 | 0.0 | 0.0 | 0.00 | 0.00 | 0.00 | 74 | 1020.7 |
| 20260502041210 | 30 | 295 | 0.0 | 0.0 | 0.00 | 0.00 | 0.00 | 74 | 1020.9 |
| 20260502040707 | 30 | 279 | 0.0 | 0.0 | 0.00 | 0.00 | 0.00 | 73 | 1020.9 |
| 20260502040204 | 31 | 304 | 0.0 | 0.0 | 0.00 | 0.00 | 0.00 | 73 | 1020.9 |
| 20260502035700 | 30 | 301 | 0.0 | 0.0 | 0.00 | 0.00 | 0.00 | 73 | 1021.0 |
| 20260502035157 | 31 | 300 | 0.0 | 0.0 | 0.00 | 0.00 | 0.00 | 75 | 1020.9 |
| 20260502034654 | 31 | 298 | 0.0 | 0.0 | 0.00 | 0.00 | 0.00 | 74 | 1021.0 |
| 20260502034153 | 31 | 298 | 0.0 | 0.0 | 0.00 | 0.00 | 0.00 | 74 | 1020.9 |
| 20260502033650 | 31 | 298 | 0.0 | 0.0 | 0.00 | 0.00 | 0.00 | 75 | 1021.1 |
| 20260502033148 | 31 | 298 | 0.0 | 0.0 | 0.00 | 0.00 | 0.00 | 75 | 1021.0 |
| 20260502032644 | 31 | 298 | 0.0 | 0.0 | 0.00 | 0.00 | 0.00 | 73 | 1021.1 |
| 20260502032140 | 31 | 300 | 0.0 | 0.0 | 0.00 | 0.00 | 0.00 | 74 | 1021.0 |
| 20260502031638 | 32 | 309 | 0.0 | 0.0 | 0.00 | 0.00 | 0.00 | 74 | 1021.0 |
| 20260502031136 | 32 | 292 | 0.0 | 0.0 | 0.00 | 0.00 | 0.00 | 74 | 1020.9 |
| 20260502030635 | 32 | 291 | 0.0 | 0.0 | 0.00 | 0.00 | 0.00 | 74 | 1021.0 |
| 20260502030132 | 31 | 291 | 0.0 | 0.0 | 0.00 | 0.00 | 0.00 | 75 | 1020.9 |
| 20260502025629 | 31 | 292 | 0.0 | 0.0 | 0.00 | 0.00 | 0.00 | 75 | 1021.0 |
| 20260502025127 | 31 | 291 | 0.0 | 0.0 | 0.00 | 0.00 | 0.00 | 74 | 1021.1 |
| 20260502024625 | 31 | 288 | 0.0 | 0.0 | 0.00 | 0.00 | 0.00 | 74 | 1021.2 |
| 20260502024123 | 32 | 291 | 0.0 | 0.0 | 0.00 | 0.00 | 0.00 | 73 | 1021.2 |
| 20260502023620 | 32 | 291 | 0.0 | 0.0 | 0.00 | 0.00 | 0.00 | 71 | 1021.1 |
| 20260502023117 | 32 | 292 | 0.0 | 0.0 | 0.00 | 0.00 | 0.00 | 73 | 1021.0 |
| 20260502022614 | 32 | 291 | 0.0 | 0.0 | 0.00 | 0.00 | 0.00 | 71 | 1021.2 |
| 20260502022111 | 32 | 291 | 0.0 | 0.0 | 0.00 | 0.00 | 0.00 | 72 | 1021.0 |
| 20260502021608 | 32 | 291 | 0.0 | 0.0 | 0.00 | 0.00 | 0.00 | 72 | 1021.2 |
| 20260502021105 | 32 | 291 | 0.0 | 0.0 | 0.00 | 0.00 | 0.00 | 71 | 1021.1 |
| 20260502020558 | 32 | 294 | 0.0 | 0.0 | 0.00 | 0.00 | 0.00 | 71 | 1021.2 |
| 20260502020054 | 32 | 294 | 0.0 | 0.0 | 0.00 | 0.00 | 0.00 | 68 | 1021.1 |
| 20260502015552 | 32 | 294 | 0.0 | 0.0 | 0.00 | 0.00 | 0.00 | 69 | 1021.2 |
| 20260502015048 | 32 | 294 | 0.0 | 0.0 | 0.00 | 0.00 | 0.00 | 68 | 1021.2 |
| 20260502014545 | 32 | 294 | 0.0 | 0.0 | 0.00 | 0.00 | 0.00 | 68 | 1021.2 |
| 20260502014043 | 33 | 294 | 0.0 | 0.0 | 0.00 | 0.00 | 0.00 | 70 | 1021.2 |
| 20260502013538 | 33 | 291 | 0.0 | 0.0 | 0.00 | 0.00 | 0.00 | 67 | 1021.0 |
| 20260502013034 | 33 | 274 | 0.0 | 0.0 | 0.00 | 0.00 | 0.00 | 66 | 1021.1 |
| 20260502012532 | 34 | 270 | 0.0 | 0.0 | 0.00 | 0.00 | 0.00 | 64 | 1021.1 |
| 20260502012029 | 34 | 291 | 0.0 | 0.0 | 0.00 | 0.00 | 0.00 | 64 | 1021.1 |
| 20260502011526 | 34 | 285 | 0.0 | 0.0 | 0.00 | 0.00 | 0.00 | 64 | 1021.0 |
| 20260502011022 | 34 | 285 | 0.0 | 0.0 | 0.00 | 0.00 | 0.00 | 64 | 1021.2 |
| 20260502010520 | 35 | 284 | 0.0 | 0.0 | 0.00 | 0.00 | 0.00 | 62 | 1020.9 |
| 20260502010016 | 35 | 285 | 0.0 | 1.0 | 0.00 | 0.00 | 0.00 | 61 | 1021.0 |
| 20260502005514 | 36 | 281 | 0.0 | 0.0 | 0.00 | 0.00 | 0.00 | 60 | 1021.0 |
| 20260502005011 | 36 | 298 | 1.0 | 1.0 | 0.00 | 0.00 | 0.00 | 58 | 1021.2 |
| 20260502004507 | 36 | 281 | 0.0 | 1.0 | 0.00 | 0.00 | 0.00 | 60 | 1021.1 |
| 20260502004004 | 36 | 278 | 1.0 | 2.0 | 0.00 | 0.00 | 0.00 | 59 | 1021.2 |
| 20260502003502 | 37 | 264 | 0.0 | 0.0 | 0.00 | 0.00 | 0.00 | 60 | 1021.1 |
| 20260502002957 | 37 | 267 | 0.0 | 0.0 | 0.00 | 0.00 | 0.00 | 57 | 1021.0 |
| 20260502002455 | 37 | 277 | 1.0 | 2.0 | 0.00 | 0.00 | 0.00 | 57 | 1020.9 |
| 20260502001952 | 37 | 257 | 2.0 | 3.0 | 0.00 | 0.00 | 0.00 | 56 | 1021.1 |
| 20260502001450 | 38 | 275 | 2.0 | 3.0 | 0.00 | 0.00 | 0.00 | 55 | 1021.0 |
| 20260502000948 | 38 | 298 | 2.0 | 3.0 | 0.00 | 0.00 | 0.00 | 53 | 1021.0 |
| 20260502000447 | 39 | 293 | 1.0 | 4.0 | 0.00 | 0.00 | 0.00 | 51 | 1021.0 |
| 20260501235941 | 41 | 284 | 1.0 | 3.0 | 0.00 | 0.00 | 0.00 | 52 | 1021.0 |
| 20260501235437 | 41 | 303 | 1.0 | 2.0 | 0.00 | 0.00 | 0.00 | 50 | 1021.2 |
| 20260501234932 | 41 | 248 | 2.0 | 3.0 | 0.00 | 0.00 | 0.00 | 50 | 1021.1 |
| 20260501234429 | 41 | 282 | 0.0 | 2.0 | 0.00 | 0.00 | 0.00 | 50 | 1021.0 |
| 20260501233928 | 41 | 279 | 1.0 | 8.0 | 0.00 | 0.00 | 0.00 | 50 | 1021.1 |
| 20260501233425 | 41 | 315 | 4.0 | 4.0 | 0.00 | 0.00 | 0.00 | 49 | 1021.0 |
| 20260501232921 | 41 | 267 | 5.0 | 6.0 | 0.00 | 0.00 | 0.00 | 48 | 1020.9 |
| 20260501232418 | 42 | 325 | 3.0 | 4.0 | 0.00 | 0.00 | 0.00 | 49 | 1021.0 |
| 20260501231915 | 41 | 269 | 4.0 | 4.0 | 0.00 | 0.00 | 0.00 | 48 | 1020.8 |
| 20260501231413 | 42 | 283 | 2.0 | 3.0 | 0.00 | 0.00 | 0.00 | 48 | 1021.0 |
| 20260501230911 | 43 | 274 | 0.0 | 4.0 | 0.00 | 0.00 | 0.00 | 48 | 1021.0 |
| 20260501230410 | 43 | 267 | 1.0 | 3.0 | 0.00 | 0.00 | 0.00 | 48 | 1021.0 |
| 20260501225907 | 42 | 287 | 2.0 | 8.0 | 0.00 | 0.00 | 0.00 | 49 | 1021.0 |
| 20260501225404 | 43 | 276 | 3.0 | 4.0 | 0.00 | 0.00 | 0.00 | 49 | 1020.9 |
| 20260501224900 | 42 | 276 | 1.0 | 4.0 | 0.00 | 0.00 | 0.00 | 46 | 1021.1 |
| 20260501224358 | 43 | 296 | 2.0 | 3.0 | 0.00 | 0.00 | 0.00 | 48 | 1021.0 |
| 20260501223854 | 41 | 295 | 2.0 | 4.0 | 0.00 | 0.00 | 0.00 | 47 | 1020.9 |
| 20260501223350 | 43 | 293 | 3.0 | 3.0 | 0.00 | 0.00 | 0.00 | 47 | 1020.7 |
| 20260501222846 | 42 | 335 | 3.0 | 8.0 | 0.00 | 0.00 | 0.00 | 49 | 1020.9 |
| 20260501222344 | 43 | 294 | 5.0 | 6.0 | 0.00 | 0.00 | 0.00 | 48 | 1020.9 |
| 20260501221840 | 44 | 292 | 2.0 | 3.0 | 0.00 | 0.00 | 0.00 | 46 | 1020.8 |
| 20260501221337 | 43 | 286 | 1.0 | 4.0 | 0.00 | 0.00 | 0.00 | 51 | 1020.7 |
| 20260501220835 | 43 | 274 | 0.0 | 2.0 | 0.00 | 0.00 | 0.00 | 48 | 1020.8 |
| 20260501220333 | 42 | 253 | 2.0 | 9.0 | 0.00 | 0.00 | 0.00 | 49 | 1020.6 |
| 20260501215829 | 43 | 247 | 3.0 | 4.0 | 0.00 | 0.00 | 0.00 | 49 | 1020.7 |
| 20260501215325 | 43 | 267 | 1.0 | 7.0 | 0.00 | 0.00 | 0.00 | 51 | 1020.6 |
| 20260501214821 | 43 | 276 | 3.0 | 6.0 | 0.00 | 0.00 | 0.00 | 52 | 1020.6 |
| 20260501214316 | 43 | 258 | 5.0 | 6.0 | 0.00 | 0.00 | 0.00 | 49 | 1020.6 |
| 20260501213813 | 42 | 287 | 2.0 | 4.0 | 0.00 | 0.00 | 0.00 | 50 | 1020.4 |
| 20260501213309 | 42 | 261 | 5.0 | 9.0 | 0.00 | 0.00 | 0.00 | 49 | 1020.5 |
| 20260501212805 | 42 | 280 | 2.0 | 6.0 | 0.00 | 0.00 | 0.00 | 49 | 1020.3 |
| 20260501212301 | 43 | 295 | 3.0 | 6.0 | 0.00 | 0.00 | 0.00 | 49 | 1020.8 |
| 20260501211759 | 43 | 279 | 3.0 | 6.0 | 0.00 | 0.00 | 0.00 | 49 | 1020.6 |
| 20260501211255 | 43 | 286 | 6.0 | 9.0 | 0.00 | 0.00 | 0.00 | 47 | 1020.6 |
| 20260501210753 | 43 | 165 | 1.0 | 2.0 | 0.00 | 0.00 | 0.00 | 50 | 1020.3 |
| 20260501210249 | 43 | 281 | 4.0 | 9.0 | 0.00 | 0.00 | 0.00 | 49 | 1020.5 |
| 20260501205745 | 43 | 254 | 2.0 | 8.0 | 0.00 | 0.00 | 0.00 | 49 | 1020.4 |
| 20260501205243 | 44 | 294 | 5.0 | 6.0 | 0.00 | 0.00 | 0.00 | 51 | 1020.5 |
| 20260501204740 | 44 | 248 | 5.0 | 8.0 | 0.00 | 0.00 | 0.00 | 48 | 1020.6 |
| 20260501204236 | 43 | 333 | 2.0 | 6.0 | 0.00 | 0.00 | 0.00 | 48 | 1020.3 |
| 20260501203732 | 42 | 261 | 1.0 | 7.0 | 0.00 | 0.00 | 0.00 | 50 | 1020.5 |
| 20260501203230 | 42 | 304 | 5.0 | 9.0 | 0.00 | 0.00 | 0.00 | 49 | 1020.4 |
| 20260501202727 | 43 | 258 | 0.0 | 6.0 | 0.00 | 0.00 | 0.00 | 48 | 1020.5 |
| 20260501202224 | 44 | 4 | 4.0 | 6.0 | 0.00 | 0.00 | 0.00 | 52 | 1020.3 |
| 20260501201720 | 43 | 154 | 1.0 | 6.0 | 0.00 | 0.00 | 0.00 | 50 | 1020.5 |
| 20260501201217 | 43 | 287 | 6.0 | 8.0 | 0.00 | 0.00 | 0.00 | 49 | 1020.4 |
| 20260501200714 | 44 | 261 | 3.0 | 4.0 | 0.00 | 0.00 | 0.00 | 48 | 1020.4 |
| 20260501200211 | 46 | 269 | 2.0 | 4.0 | 0.00 | 0.00 | 0.00 | 44 | 1020.4 |
| 20260501195709 | 45 | 2 | 4.0 | 6.0 | 0.00 | 0.00 | 0.00 | 50 | 1020.3 |
| 20260501195204 | 44 | 249 | 1.0 | 4.0 | 0.00 | 0.00 | 0.00 | 48 | 1020.5 |